User: anonymous   Login
Location: Morehead State University
(38.1872°N, 83.4339°W)
Time: 17:24:43
(UTC-04:00)
Language:

Okean 2 - Orbit

View from above orbital plane
View from above orbital plane
View from above satellite
View from above satellite

Ground track
Ground track

The orbit data is extracted from the following two-line orbital elements,

1 20510U 90018A   17235.18960017  .00000289  00000-0  21573-4 0  9997
2 20510  82.5152 107.1290 0013680 112.8763   7.5418 14.98952615491480
Epoch (UTC): 23 August 2017 04:33:01
Eccentricity: 0.0013680
inclination: 82.5152°
perigee height: 560 km
apogee height: 579 km
right ascension of ascending node: 107.1290°
argument of perigee: 112.8763°
revolutions per day: 14.98952615
mean anomaly at epoch: 7.5418°
orbit number at epoch: 49148

The dashed part of the orbit path shows where the satellite is in the earth's shadow,  

DLR